Location: Viterbo
(42.4170°N, 12.1000°E)
Time: 20:53:42
(UTC+01:00)

ISS - Pass Details

Date: 25 February 2019
Orbit: 406 x 411 km, 51.6° (Epoch: 19 March)

Event Time Altitude Azimuth Distance (km) Brightness Sun altitude
Exits shadow 04:49:38 15° 149° (SSE) 1,183 -1.3 -23.7°
Maximum altitude 04:50:21 16° 132° (SE) 1,142 -1.1 -23.6°
Drops below altitude 10° 04:52:29 10° 92° (E) 1,462 0.1 -23.2°
Sets 04:55:06 0° 70° (ENE) 2,327 1.4 -22.7°
